If you wish to contribute or participate in the discussions about articles you are invited to join SKYbrary as a registered user

 Actions

Tokushima Airport

From SKYbrary Wiki

RJOS
Airport
ICAO: RJOS – IATA: TKS
Summary
Name Tokushima Airport
Region Asia and Pacific
Territory Japan JP.gif
Location Matsushige, Tokushima Prefecture
Serving Tokushima
Elevation 11.278 m <br />37 ft11.278 m <br />
Coordinates 34° 8' 3.81" N, 134° 37' 5.41" E
Runways
Designator Length Width Surface ROPS
11/29 1999 m6,558.399 ft <br /> 46 m150.919 ft <br /> ASP yes/yes


METAR
Observation RJOS 230700Z 06008KT 9999 FEW025 SCT150 25/19 Q1009
Station Tokushima Ab
Date/Time 23 June 2021 07:00:00
Wind direction 60°
Wind speed 08 kts
Lowest cloud amount few clouds
Temperature 25°C
Dew point 19°C
Humidity 69%
QNH 1009 hPa
Weather condition n/a

Tokushima Awaodori Airport is a joint civil-military public airport in Matsushige, Tokushima, Japan, near the city of Tokushima.

Climatology

Humid Sub-tropical climate (Köppen climate classification Cfa)

Maps

Terrain

Loading map...

Airport Layout

Loading map...


Accidents & Serious Incidents at or in vicinity of RJOS

None on SKYbrary